period_start,C,m1,H,J0,J1,J2,J3,J4,J5,JA,JB,JC,JD,JJ,JK,JN,#
2013-07-29 00:00:05,-0.02,0.26,0.00,28.69,31.65,33.88,6.00,31.88,1016.14,2035.09,3361.74,3245.99,3529.02,350.51,318.49,18.52,0000 0000 0000 0000 000000
2013-07-29 00:01:06,-0.00,0.26,0.00,28.68,31.65,33.91,5.88,31.79,1016.14,2035.05,3361.66,3245.99,3529.01,350.06,317.96,18.52,0000 0000 0000 0000 000000
2013-07-29 00:02:06,-0.00,0.26,0.00,28.70,31.65,33.92,5.93,31.92,1016.15,2035.06,3361.45,3245.99,3529.01,349.96,317.67,18.53,0000 0000 0000 0000 000000
2013-07-29 00:03:06,0.03,0.26,0.00,28.70,31.65,33.90,5.85,31.75,1016.14,2035.06,3361.37,3245.99,3529.01,349.32,317.08,18.54,0000 0000 0000 0000 000000
2013-07-29 00:04:06,0.01,0.26,0.00,28.69,31.65,33.91,5.84,31.88,1016.15,2035.06,3361.19,3245.98,3529.00,350.08,317.79,18.54,0000 0000 0000 0000 000000
2013-07-29 00:05:07,0.03,0.26,0.00,28.69,31.65,33.93,5.84,31.83,1016.14,2035.08,3361.13,3245.96,3529.00,350.40,318.08,18.55,0000 0000 0000 0000 000000
2013-07-29 00:06:07,0.02,0.26,0.00,28.66,31.65,33.99,5.88,31.79,1016.13,2035.05,3361.07,3245.97,3529.00,349.78,317.35,18.55,0000 0000 0000 0000 000000
2013-07-29 00:07:07,-0.02,0.26,0.00,28.68,31.65,33.95,5.78,32.13,1016.13,2035.10,3361.04,3245.97,3529.00,350.21,318.01,18.56,0000 0000 0000 0000 000000
2013-07-29 00:08:07,0.01,0.26,0.00,28.68,31.65,33.88,5.63,31.88,1016.13,2035.11,3361.03,3245.96,3529.00,348.94,317.28,18.57,0000 0000 0000 0000 000000
2013-07-29 00:09:07,0.03,0.26,0.00,28.69,31.65,33.86,5.77,31.79,1016.14,2035.16,3361.01,3245.95,3529.00,349.66,317.10,18.57,0000 0000 0000 0000 000000
2013-07-29 00:10:08,0.04,0.26,0.00,28.71,31.66,33.95,5.73,31.75,1016.13,2035.14,3361.00,3245.93,3529.00,349.89,317.83,18.58,0000 0000 0000 0000 000000
2013-07-29 00:11:08,-0.05,0.26,0.00,28.76,31.66,33.95,5.83,32.00,1016.13,2035.16,3361.00,3245.83,3529.00,349.91,317.61,18.58,0000 0000 0000 0000 000000
2013-07-29 00:12:08,0.03,0.26,0.00,28.80,31.66,33.93,5.83,31.96,1016.13,2035.11,3361.00,3245.61,3528.98,349.56,317.17,18.59,0000 0000 0000 0000 000000
2013-07-29 00:13:08,0.05,0.26,0.00,28.80,31.66,33.92,5.88,31.88,1016.13,2035.08,3361.00,3245.38,3528.96,350.17,317.74,18.59,0000 0000 0000 0000 000000
2013-07-29 00:14:09,0.01,0.26,0.00,28.81,31.67,33.93,5.85,31.88,1016.13,2035.06,3360.99,3245.43,3528.97,349.80,317.40,18.60,0000 0000 0000 0000 000000
2013-07-29 00:15:09,-0.01,0.26,0.00,28.82,31.67,33.91,5.75,32.00,1016.13,2035.11,3360.99,3245.45,3528.98,349.63,317.24,18.61,0000 0000 0000 0000 000000
2013-07-29 00:16:09,0.01,0.26,0.00,28.83,31.67,33.95,5.77,31.96,1016.13,2035.08,3360.97,3245.30,3528.90,349.48,317.09,18.61,0000 0000 0000 0000 000000
2013-07-29 00:17:09,0.03,0.27,0.00,28.83,31.67,33.98,5.85,31.96,1016.13,2035.09,3360.97,3245.28,3528.91,349.90,317.48,18.62,0000 0000 0000 0000 000000
2013-07-29 00:18:10,0.00,0.27,0.00,28.84,31.67,33.93,5.88,31.71,1016.13,2035.12,3360.96,3245.26,3528.90,350.03,317.31,18.62,0000 0000 0000 0000 000000
2013-07-29 00:19:10,0.01,0.27,0.00,28.83,31.67,33.96,5.75,31.83,1016.13,2035.11,3360.90,3245.18,3528.85,349.34,316.96,18.63,0000 0000 0000 0000 000000
2013-07-29 00:20:10,0.03,0.27,0.00,28.80,31.67,33.98,5.92,31.75,1016.13,2035.10,3360.88,3245.12,3528.85,350.63,317.97,18.64,0000 0000 0000 0000 000000
2013-07-29 00:21:11,0.02,0.27,0.00,28.79,31.67,33.98,5.78,31.75,1016.13,2035.10,3360.92,3245.07,3528.87,349.80,317.40,18.64,0000 0000 0000 0000 000000
2013-07-29 00:22:11,0.01,0.27,0.00,28.81,31.67,33.95,5.87,32.04,1016.13,2035.15,3360.78,3245.05,3528.85,348.81,316.65,18.65,0000 0000 0000 0000 000000
2013-07-29 00:23:11,0.04,0.27,0.00,28.80,31.67,33.96,5.81,31.75,1016.13,2035.19,3360.77,3245.06,3528.77,349.51,317.27,18.65,0000 0000 0000 0000 000000
2013-07-29 00:24:12,0.05,0.27,0.00,28.81,31.67,33.98,5.77,31.92,1016.13,2035.11,3360.57,3245.06,3528.58,349.00,316.19,18.66,0000 0000 0000 0000 000000
2013-07-29 00:25:12,0.01,0.27,0.00,28.78,31.67,33.95,5.85,31.83,1016.13,2035.16,3360.34,3245.05,3528.32,350.06,317.58,18.66,0000 0000 0000 0000 000000
2013-07-29 00:26:12,0.09,0.27,0.00,28.78,31.67,33.97,5.83,31.75,1016.13,2035.17,3360.24,3245.02,3528.22,349.30,317.55,18.67,0000 0000 0000 0000 000000
2013-07-29 00:27:13,0.04,0.27,0.00,28.82,31.67,34.01,5.90,31.96,1016.13,2035.15,3360.19,3245.02,3528.12,349.80,317.39,18.68,0000 0000 0000 0000 000000
2013-07-29 00:28:13,0.00,0.27,0.00,28.83,31.67,34.03,5.91,32.00,1016.13,2035.16,3360.16,3245.00,3528.10,349.99,316.88,18.68,0000 0000 0000 0000 000000
2013-07-29 00:29:13,0.02,0.27,0.00,28.78,31.67,34.02,5.87,31.75,1016.13,2035.12,3360.08,3245.00,3528.06,350.44,318.02,18.69,0000 0000 0000 0000 000000
2013-07-29 00:30:14,-0.01,0.27,0.00,28.78,31.67,34.02,5.86,31.88,1016.13,2035.10,3360.07,3245.00,3528.03,350.22,317.82,18.69,0000 0000 0000 0000 000000
2013-07-29 00:31:14,-0.01,0.27,0.00,28.80,31.68,33.97,5.77,31.75,1016.13,2035.09,3360.03,3245.00,3528.03,349.12,316.79,18.70,0000 0000 0000 0000 000000
2013-07-29 00:32:14,-0.00,0.27,0.00,28.80,31.68,34.01,5.85,32.00,1016.13,2035.06,3360.02,3245.00,3528.01,349.30,316.95,18.71,0000 0000 0000 0000 000000
2013-07-29 00:33:14,-0.01,0.27,0.00,28.82,31.69,34.04,5.82,31.83,1016.13,2035.03,3360.00,3245.00,3528.00,349.58,317.19,18.71,0000 0000 0000 0000 000000
2013-07-29 00:34:15,-0.01,0.27,0.00,28.83,31.69,34.04,5.97,31.83,1016.13,2035.03,3360.00,3245.00,3528.00,350.59,317.91,18.72,0000 0000 0000 0000 000000
2013-07-29 00:35:15,0.00,0.27,0.00,28.84,31.70,34.05,5.90,31.92,1016.13,2035.04,3360.00,3245.00,3528.00,349.66,316.71,18.72,0000 0000 0000 0000 000000
2013-07-29 00:36:15,0.00,0.27,0.00,28.86,31.70,34.04,5.77,31.75,1016.13,2035.04,3360.00,3245.00,3528.00,349.96,317.50,18.73,0000 0000 0000 0000 000000
2013-07-29 00:37:15,0.00,0.27,0.00,28.82,31.70,34.04,5.82,31.79,1016.15,2035.04,3360.00,3245.00,3528.00,349.36,316.79,18.74,0000 0000 0000 0000 000000
2013-07-29 00:38:16,0.01,0.27,0.00,28.83,31.70,33.99,5.77,31.75,1016.13,2035.05,3360.00,3245.00,3528.00,349.43,317.05,18.74,0000 0000 0000 0000 000000
2013-07-29 00:39:16,0.01,0.27,0.00,28.88,31.70,33.97,5.93,32.00,1016.14,2035.03,3360.00,3244.98,3528.00,349.97,317.49,18.75,0000 0000 0000 0000 000000
2013-07-29 00:40:16,-0.01,0.27,0.00,28.88,31.70,33.99,5.89,32.00,1016.14,2035.04,3359.99,3244.96,3528.00,350.07,317.41,18.75,0000 0000 0000 0000 000000
2013-07-29 00:41:16,0.01,0.27,0.00,28.84,31.70,33.98,5.98,31.88,1016.14,2035.04,3359.99,3244.96,3528.00,350.28,318.05,18.76,0000 0000 0000 0000 000000
2013-07-29 00:42:17,0.01,0.27,0.00,28.84,31.70,33.96,5.91,31.96,1016.13,2035.02,3359.98,3244.94,3527.98,350.19,317.62,18.76,0000 0000 0000 0000 000000
2013-07-29 00:43:17,-0.01,0.27,0.00,28.85,31.70,34.00,5.83,32.00,1016.13,2035.01,3359.99,3244.89,3527.99,349.41,316.90,18.77,0000 0000 0000 0000 000000
2013-07-29 00:44:17,0.01,0.27,0.00,28.88,31.70,34.04,5.85,32.00,1016.13,2035.00,3359.99,3244.77,3527.96,350.55,318.01,18.78,0000 0000 0000 0000 000000
2013-07-29 00:45:17,0.02,0.27,0.00,28.92,31.70,34.03,5.92,31.88,1016.13,2035.01,3359.97,3244.76,3527.96,350.43,317.87,18.78,0000 0000 0000 0000 000000
2013-07-29 00:46:18,0.01,0.27,0.00,28.93,31.70,34.00,5.85,31.92,1016.13,2035.02,3359.97,3244.84,3527.96,351.08,318.57,18.79,0000 0000 0000 0000 000000
2013-07-29 00:47:18,-0.00,0.27,0.00,28.94,31.71,33.99,5.88,31.92,1016.13,2035.02,3359.98,3244.86,3527.96,350.44,317.91,18.79,0000 0000 0000 0000 000000
2013-07-29 00:48:18,-0.00,0.27,0.00,28.94,31.72,33.99,5.84,31.79,1016.13,2035.04,3359.96,3244.90,3527.95,349.96,317.02,18.80,0000 0000 0000 0000 000000
2013-07-29 00:49:18,0.00,0.27,0.00,28.95,31.72,33.99,5.99,32.17,1016.13,2035.01,3359.92,3244.86,3527.94,352.10,319.35,18.81,0000 0000 0000 0000 000000
2013-07-29 00:50:19,0.01,0.27,0.00,28.99,31.72,34.00,5.93,32.04,1016.13,2035.01,3359.88,3244.63,3527.87,350.18,317.55,18.81,0000 0000 0000 0000 000000
2013-07-29 00:51:19,0.03,0.27,0.00,28.99,31.72,34.06,5.82,31.79,1016.15,2035.00,3359.82,3244.61,3527.81,350.09,317.47,18.82,0000 0000 0000 0000 000000
2013-07-29 00:52:19,0.02,0.27,0.00,28.96,31.72,34.06,5.67,31.96,1016.14,2035.01,3359.76,3244.54,3527.79,349.32,316.82,18.82,0000 0000 0000 0000 000000
2013-07-29 00:53:20,0.06,0.27,0.00,28.95,31.72,34.04,5.84,31.83,1016.14,2035.00,3359.61,3244.36,3527.56,350.29,317.28,18.83,0000 0000 0000 0000 000000
2013-07-29 00:54:20,0.06,0.27,0.00,28.98,31.72,34.04,5.93,31.79,1016.13,2035.00,3359.41,3244.22,3527.38,350.28,317.76,18.83,0000 0000 0000 0000 000000
2013-07-29 00:55:20,0.07,0.27,0.00,28.95,31.72,34.05,5.88,31.83,1016.17,2035.00,3359.21,3244.12,3527.20,349.98,317.43,18.84,0000 0000 0000 0000 000000
2013-07-29 00:56:21,0.06,0.27,0.00,28.92,31.73,34.03,5.74,31.67,1016.14,2035.00,3359.11,3244.09,3527.10,349.68,317.44,18.85,0000 0000 0000 0000 000000
2013-07-29 00:57:21,0.02,0.27,0.00,28.94,31.73,34.04,5.63,31.83,1016.14,2035.01,3359.07,3244.04,3527.04,348.75,316.31,18.85,0000 0000 0000 0000 000000
2013-07-29 00:58:21,0.02,0.27,0.00,28.93,31.73,34.09,5.88,31.83,1016.14,2035.00,3359.03,3244.02,3527.01,350.42,317.90,18.86,0000 0000 0000 0000 000000
2013-07-29 00:59:22,0.01,0.27,0.00,28.94,31.74,34.12,5.76,31.63,1016.14,2035.00,3359.02,3244.00,3527.02,349.88,317.26,18.86,0000 0000 0000 0000 000000
2013-07-29 01:00:22,0.01,0.27,0.00,28.98,31.75,34.10,5.83,31.83,1016.13,2035.01,3359.00,3244.00,3527.01,349.96,317.03,18.87,0000 0000 0000 0000 000000
2013-07-29 01:01:22,0.01,0.27,0.00,28.99,31.75,34.09,5.88,31.71,1016.14,2035.00,3359.00,3244.00,3527.00,350.90,318.33,18.88,0000 0000 0000 0000 000000
2013-07-29 01:02:22,0.00,0.27,0.00,28.94,31.75,34.09,5.90,31.92,1016.15,2035.00,3359.00,3244.00,3527.00,349.67,317.45,18.88,0000 0000 0000 0000 000000
2013-07-29 01:03:22,0.00,0.27,0.00,28.90,31.75,34.07,5.82,31.67,1016.14,2035.00,3359.00,3244.00,3527.00,350.28,317.28,18.89,0000 0000 0000 0000 000000
2013-07-29 01:04:23,0.00,0.27,0.00,28.93,31.75,34.09,5.87,31.67,1016.14,2035.00,3359.00,3244.00,3527.00,350.90,318.13,18.89,0000 0000 0000 0000 000000
2013-07-29 01:05:23,0.00,0.27,0.00,28.98,31.75,34.11,5.83,31.67,1016.15,2035.00,3359.00,3244.00,3527.00,350.25,317.88,18.90,0000 0000 0000 0000 000000
2013-07-29 01:06:23,0.00,0.27,0.00,28.97,31.75,34.06,5.84,31.75,1016.15,2035.00,3359.00,3244.00,3526.99,349.53,316.99,18.91,0000 0000 0000 0000 000000
2013-07-29 01:07:23,0.00,0.27,0.00,28.93,31.75,34.08,5.83,31.88,1016.15,2035.00,3358.97,3244.00,3526.97,350.10,317.55,18.91,0000 0000 0000 0000 000000
2013-07-29 01:08:24,0.00,0.27,0.00,28.93,31.75,34.08,5.96,31.96,1016.13,2035.00,3358.95,3244.00,3526.96,350.78,318.17,18.92,0000 0000 0000 0000 000000
2013-07-29 01:09:24,0.00,0.27,0.00,28.93,31.76,34.07,5.91,31.88,1016.15,2035.00,3358.87,3244.00,3526.95,350.02,317.48,18.92,0000 0000 0000 0000 000000
2013-07-29 01:10:24,0.01,0.27,0.00,28.91,31.77,34.10,5.83,31.88,1016.14,2035.00,3358.72,3243.97,3526.91,349.81,317.30,18.93,0000 0000 0000 0000 000000
2013-07-29 01:11:25,0.02,0.27,0.00,28.92,31.77,34.10,5.83,31.96,1016.13,2035.00,3358.56,3243.93,3526.87,348.89,316.45,18.93,0000 0000 0000 0000 000000
2013-07-29 01:12:25,0.04,0.27,0.00,28.91,31.77,34.12,5.84,31.63,1016.13,2035.00,3358.28,3243.91,3526.69,350.51,317.67,18.94,0000 0000 0000 0000 000000
2013-07-29 01:13:25,0.05,0.27,0.00,28.94,31.77,34.16,5.81,31.83,1016.14,2035.00,3358.20,3243.86,3526.62,349.23,316.94,18.95,0000 0000 0000 0000 000000
2013-07-29 01:14:25,0.03,0.27,0.00,28.99,31.77,34.15,5.84,31.79,1016.15,2035.00,3358.18,3243.85,3526.59,349.85,317.26,18.95,0000 0000 0000 0000 000000
2013-07-29 01:15:26,0.01,0.27,0.00,28.97,31.77,34.15,5.92,31.96,1016.13,2035.00,3358.14,3243.84,3526.64,349.44,316.91,18.96,0000 0000 0000 0000 000000
2013-07-29 01:16:26,0.00,0.27,0.00,28.96,31.77,34.21,5.85,32.00,1016.13,2035.00,3358.11,3243.80,3526.56,350.47,317.85,18.96,0000 0000 0000 0000 000000
2013-07-29 01:17:26,0.01,0.27,0.00,28.96,31.78,34.17,5.73,31.58,1016.13,2035.00,3358.09,3243.77,3526.38,349.59,316.78,18.97,0000 0000 0000 0000 000000
2013-07-29 01:18:26,0.02,0.27,0.00,28.98,31.78,34.16,5.88,31.71,1016.13,2035.00,3358.05,3243.64,3526.27,350.25,317.71,18.98,0000 0000 0000 0000 000000
2013-07-29 01:19:26,0.04,0.27,0.00,29.01,31.78,34.12,5.79,31.92,1016.13,2035.00,3358.02,3243.56,3526.21,350.01,317.38,18.98,0000 0000 0000 0000 000000
2013-07-29 01:20:27,0.03,0.27,0.00,28.98,31.79,34.13,5.84,31.83,1016.13,2035.00,3358.00,3243.47,3526.14,350.45,317.38,18.99,0000 0000 0000 0000 000000
2013-07-29 01:21:27,0.03,0.27,0.00,28.97,31.80,34.13,5.77,32.00,1016.13,2035.00,3358.00,3243.28,3526.09,350.03,317.26,18.99,0000 0000 0000 0000 000000
2013-07-29 01:22:27,0.05,0.27,0.00,29.00,31.80,34.10,5.92,31.83,1016.13,2035.00,3358.00,3243.22,3526.06,350.10,317.39,19.00,0000 0000 0000 0000 000000
2013-07-29 01:23:28,0.02,0.27,0.00,29.02,31.80,34.12,5.87,31.83,1016.13,2035.00,3358.00,3243.16,3526.03,350.15,317.47,19.00,0000 0000 0000 0000 000000
2013-07-29 01:24:28,0.01,0.27,0.00,29.03,31.80,34.12,5.94,31.75,1016.13,2035.00,3358.00,3243.07,3526.01,349.52,317.15,19.01,0000 0000 0000 0000 000000
2013-07-29 01:25:28,0.01,0.27,0.00,29.05,31.80,34.12,5.77,31.67,1016.14,2035.00,3358.00,3243.02,3526.00,349.92,317.26,19.02,0000 0000 0000 0000 000000
2013-07-29 01:26:29,0.01,0.27,0.00,29.08,31.80,34.12,5.87,31.67,1016.13,2035.00,3357.98,3243.01,3526.00,350.34,317.61,19.02,0000 0000 0000 0000 000000
2013-07-29 01:27:29,0.00,0.27,0.00,29.07,31.80,34.15,5.87,31.88,1016.13,2035.00,3357.95,3243.02,3526.00,349.70,317.04,19.03,0000 0000 0000 0000 000000
2013-07-29 01:28:29,0.00,0.27,0.00,29.07,31.80,34.18,5.85,31.75,1016.13,2035.00,3357.81,3243.01,3526.00,349.80,317.13,19.03,0000 0000 0000 0000 000000
2013-07-29 01:29:29,0.03,0.27,0.00,29.03,31.80,34.18,5.90,31.71,1016.15,2035.00,3357.51,3243.00,3525.96,351.01,318.08,19.04,0000 0000 0000 0000 000000
2013-07-29 01:30:30,0.03,0.27,0.00,29.04,31.81,34.18,5.93,31.75,1016.13,2034.99,3357.28,3243.00,3525.96,351.03,317.67,19.05,0000 0000 0000 0000 000000
2013-07-29 01:31:30,0.02,0.27,0.00,29.05,31.82,34.18,5.89,31.88,1016.13,2034.98,3357.13,3242.99,3525.89,349.91,317.25,19.05,0000 0000 0000 0000 000000
2013-07-29 01:32:30,0.01,0.27,0.00,29.05,31.82,34.15,5.88,31.92,1016.13,2034.99,3357.14,3242.99,3525.92,349.97,317.30,19.06,0000 0000 0000 0000 000000
2013-07-29 01:33:31,0.00,0.27,0.00,29.05,31.82,34.14,5.96,31.67,1016.13,2034.99,3357.11,3242.98,3525.89,350.73,317.87,19.06,0000 0000 0000 0000 000000
2013-07-29 01:34:31,0.01,0.27,0.00,29.02,31.82,34.20,5.75,31.96,1016.14,2034.98,3357.04,3242.99,3525.64,348.57,316.07,19.07,0000 0000 0000 0000 000000
2013-07-29 01:35:31,0.03,0.27,0.00,29.03,31.82,34.24,5.77,31.88,1016.13,2034.97,3357.01,3242.96,3525.35,349.27,316.44,19.08,0000 0000 0000 0000 000000
2013-07-29 01:36:31,0.03,0.27,0.00,29.01,31.82,34.20,5.88,31.67,1016.15,2034.97,3357.00,3242.91,3525.19,350.16,317.62,19.08,0000 0000 0000 0000 000000
2013-07-29 01:37:32,0.02,0.27,0.00,28.99,31.82,34.17,5.90,31.79,1016.15,2034.98,3357.00,3242.81,3525.14,350.00,317.40,19.09,0000 0000 0000 0000 000000
2013-07-29 01:38:32,0.01,0.27,0.00,29.03,31.82,34.17,5.83,32.00,1016.15,2034.98,3357.00,3242.81,3525.15,349.66,316.91,19.09,0000 0000 0000 0000 000000
2013-07-29 01:39:32,0.01,0.27,0.00,29.07,31.83,34.18,5.89,32.17,1016.15,2034.98,3357.00,3242.73,3525.10,349.73,316.99,19.10,0000 0000 0000 0000 000000
2013-07-29 01:40:33,0.02,0.27,0.00,29.05,31.83,34.19,5.89,32.04,1016.14,2034.98,3357.00,3242.56,3525.05,349.48,317.11,19.10,0000 0000 0000 0000 000000
2013-07-29 01:41:33,0.04,0.27,0.00,29.04,31.85,34.16,5.69,31.75,1016.15,2034.97,3356.99,3242.35,3525.02,349.64,316.78,19.11,0000 0000 0000 0000 000000
2013-07-29 01:42:33,0.03,0.27,0.00,29.06,31.85,34.19,5.95,31.75,1016.17,2034.95,3356.98,3242.24,3525.00,350.17,317.48,19.12,0000 0000 0000 0000 000000
2013-07-29 01:43:33,0.01,0.27,0.00,29.09,31.85,34.22,5.98,32.04,1016.16,2034.95,3356.92,3242.10,3525.00,350.68,317.92,19.12,0000 0000 0000 0000 000000
2013-07-29 01:44:34,0.01,0.27,0.00,29.10,31.85,34.18,5.90,31.96,1016.16,2034.93,3356.84,3242.06,3525.00,350.59,317.81,19.13,0000 0000 0000 0000 000000
2013-07-29 01:45:34,0.03,0.27,0.00,29.11,31.85,34.19,5.93,31.92,1016.16,2034.92,3356.57,3242.03,3525.00,350.88,318.47,19.13,0000 0000 0000 0000 000000
2013-07-29 01:46:34,0.02,0.27,0.00,29.16,31.85,34.20,5.82,31.75,1016.19,2034.93,3356.16,3241.66,3524.51,349.70,316.95,19.14,0000 0000 0000 0000 000000
2013-07-29 01:47:34,0.32,0.28,0.00,29.16,31.85,34.20,5.87,31.75,1016.29,2034.93,3355.05,3240.36,3522.83,350.33,317.56,19.15,0000 0000 0000 0000 000000
2013-07-29 01:48:35,0.56,0.28,0.00,29.10,31.85,34.23,5.68,31.92,1016.50,2034.94,3354.38,3239.50,3521.70,349.30,316.76,19.15,0000 0000 0000 0000 000000
2013-07-29 01:49:35,0.39,0.28,0.00,29.08,31.86,34.24,5.88,31.83,1016.49,2034.95,3354.13,3239.18,3521.25,350.67,318.02,19.16,0000 0000 0000 0000 000000
2013-07-29 01:50:35,0.14,0.28,0.00,29.10,31.86,34.20,5.87,31.79,1016.50,2034.93,3354.03,3239.07,3521.09,349.30,316.75,19.16,0000 0000 0000 0000 000000
2013-07-29 01:51:36,0.06,0.28,0.00,29.08,31.87,34.22,5.91,31.71,1016.46,2034.94,3353.99,3239.02,3521.03,350.78,318.11,19.17,0000 0000 0000 0000 000000
2013-07-29 01:52:36,0.02,0.28,0.00,29.10,31.87,34.23,5.71,31.83,1016.41,2034.93,3353.98,3238.99,3521.01,349.42,316.63,19.18,0000 0000 0000 0000 000000
2013-07-29 01:53:36,0.00,0.28,0.00,29.09,31.87,34.23,5.95,31.92,1016.41,2034.90,3353.95,3238.95,3521.00,350.11,317.47,19.18,0000 0000 0000 0000 000000
2013-07-29 01:54:37,-0.03,0.28,0.00,29.07,31.87,34.23,5.85,31.88,1016.33,2034.76,3353.77,3238.88,3521.00,350.10,317.66,19.19,0000 0000 0000 0000 000000
2013-07-29 01:55:37,-0.04,0.28,0.00,29.07,31.87,34.24,5.88,31.75,1016.28,2034.66,3353.58,3238.85,3521.00,350.39,317.71,19.19,0000 0000 0000 0000 000000
2013-07-29 01:56:37,-0.04,0.28,0.00,29.08,31.87,34.25,5.65,31.71,1016.23,2034.63,3353.42,3238.78,3520.99,348.91,315.96,19.20,0000 0000 0000 0000 000000
2013-07-29 01:57:38,-0.01,0.28,0.00,29.10,31.87,34.25,5.83,31.71,1016.24,2034.62,3353.27,3238.64,3520.98,350.06,317.36,19.20,0000 0000 0000 0000 000000
2013-07-29 01:58:38,0.06,0.28,0.00,29.08,31.88,34.22,5.90,31.79,1016.24,2034.57,3353.22,3238.52,3520.95,349.11,316.99,19.21,0000 0000 0000 0000 000000
2013-07-29 01:59:38,-0.03,0.28,0.00,29.10,31.88,34.20,5.91,31.88,1016.20,2034.39,3353.10,3238.28,3520.90,350.23,317.41,19.22,0000 0000 0000 0000 000000
2013-07-29 02:00:38,-0.03,0.28,0.00,29.11,31.89,34.19,5.87,31.83,1016.20,2034.41,3353.08,3238.20,3520.84,350.15,317.43,19.22,0000 0000 0000 0000 000000
2013-07-29 02:01:38,0.02,0.28,0.00,29.13,31.90,34.20,5.94,31.67,1016.23,2034.43,3353.06,3238.16,3520.79,351.76,318.87,19.23,0000 0000 0000 0000 000000
2013-07-29 02:02:39,0.06,0.28,0.00,29.18,31.90,34.22,5.89,31.83,1016.21,2034.46,3353.04,3238.14,3520.71,350.51,317.68,19.23,0000 0000 0000 0000 000000
2013-07-29 02:03:39,0.03,0.28,0.00,29.15,31.90,34.23,5.89,31.96,1016.20,2034.40,3353.01,3238.07,3520.45,350.81,317.98,19.24,0000 0000 0000 0000 000000
2013-07-29 02:04:39,0.01,0.28,0.00,29.11,31.90,34.22,5.82,31.58,1016.24,2034.36,3353.00,3238.02,3520.30,350.68,317.92,19.25,0000 0000 0000 0000 000000
2013-07-29 02:05:39,-0.07,0.28,0.00,29.07,31.90,34.24,5.82,31.75,1016.25,2034.25,3353.00,3238.01,3520.26,349.93,317.28,19.25,0000 0000 0000 0000 000000
2013-07-29 02:06:39,-0.03,0.28,0.00,29.12,31.90,34.31,5.94,31.71,1016.27,2034.32,3353.00,3238.03,3520.20,350.86,318.08,19.26,0000 0000 0000 0000 000000
2013-07-29 02:07:40,0.11,0.28,0.00,29.16,31.90,34.30,5.80,32.04,1016.32,2034.40,3353.00,3238.03,3520.20,349.38,316.72,19.26,0000 0000 0000 0000 000000
2013-07-29 02:08:40,0.01,0.28,0.00,29.12,31.90,34.26,5.85,31.83,1016.39,2034.38,3353.00,3238.01,3520.11,350.14,317.46,19.27,0000 0000 0000 0000 000000
2013-07-29 02:09:40,-0.00,0.28,0.00,29.11,31.91,34.24,5.96,31.96,1016.43,2034.27,3353.00,3238.00,3520.06,350.47,317.39,19.27,0000 0000 0000 0000 000000
2013-07-29 02:10:40,-0.07,0.28,0.00,29.13,31.92,34.24,6.02,31.96,1016.45,2034.23,3352.97,3238.00,3520.06,351.31,318.06,19.28,0000 0000 0000 0000 000000
2013-07-29 02:11:40,-0.02,0.28,0.00,29.14,31.92,34.34,5.93,31.88,1016.52,2034.20,3352.97,3238.00,3520.02,349.88,317.33,19.29,0000 0000 0000 0000 000000
2013-07-29 02:12:40,-0.03,0.28,0.00,29.17,31.92,34.34,5.72,31.88,1016.55,2034.16,3352.92,3238.00,3520.01,349.47,316.50,19.29,0000 0000 0000 0000 000000
2013-07-29 02:13:41,-0.02,0.28,0.00,29.19,31.92,34.29,5.93,31.58,1016.60,2034.18,3352.89,3238.00,3520.01,350.93,318.07,19.30,0000 0000 0000 0000 000000
2013-07-29 02:14:41,-0.00,0.28,0.00,29.20,31.92,34.29,5.97,31.63,1016.62,2034.11,3352.75,3238.00,3520.00,351.19,318.26,19.30,0000 0000 0000 0000 000000
2013-07-29 02:15:41,-0.01,0.28,0.00,29.19,31.92,34.29,5.87,31.63,1016.62,2034.06,3352.50,3237.98,3520.00,351.05,318.08,19.31,0000 0000 0000 0000 000000
2013-07-29 02:16:41,-0.01,0.28,0.00,29.15,31.93,34.29,5.84,31.63,1016.62,2034.03,3352.37,3237.98,3520.00,350.70,318.01,19.32,0000 0000 0000 0000 000000
2013-07-29 02:17:42,-0.00,0.28,0.00,29.16,31.93,34.27,5.93,31.88,1016.61,2034.06,3352.30,3237.98,3520.00,349.50,316.75,19.32,0000 0000 0000 0000 000000
2013-07-29 02:18:42,0.04,0.28,0.00,29.18,31.94,34.33,5.96,31.79,1016.60,2034.05,3352.13,3237.66,3519.94,350.65,317.49,19.33,0000 0000 0000 0000 000000
2013-07-29 02:19:42,0.10,0.28,0.00,29.21,31.95,34.31,5.87,31.83,1016.61,2034.06,3352.04,3237.34,3519.71,350.06,316.84,19.33,0000 0000 0000 0000 000000
2013-07-29 02:20:42,0.10,0.28,0.00,29.23,31.95,34.27,5.89,31.83,1016.61,2034.05,3352.01,3237.17,3519.57,349.86,316.95,19.34,0000 0000 0000 0000 000000
2013-07-29 02:21:42,0.03,0.28,0.00,29.19,31.95,34.30,5.78,31.75,1016.62,2034.05,3352.00,3237.09,3519.50,349.63,317.26,19.34,0000 0000 0000 0000 000000
2013-07-29 02:22:43,0.03,0.28,0.00,29.20,31.95,34.33,5.77,31.79,1016.62,2034.03,3352.00,3237.03,3519.33,349.64,317.19,19.35,0000 0000 0000 0000 000000
2013-07-29 02:23:43,0.02,0.29,0.00,29.24,31.95,34.29,5.80,31.96,1016.62,2034.02,3351.99,3237.02,3519.17,349.29,316.42,19.36,0000 0000 0000 0000 000000
2013-07-29 02:24:43,0.01,0.29,0.00,29.23,31.95,34.28,5.79,31.88,1016.62,2034.01,3351.99,3237.00,3519.09,350.20,317.48,19.36,0000 0000 0000 0000 000000
2013-07-29 02:25:43,0.00,0.29,0.00,29.21,31.95,34.30,5.71,31.58,1016.62,2034.01,3351.99,3237.00,3519.09,349.48,316.84,19.37,0000 0000 0000 0000 000000
2013-07-29 02:26:44,0.01,0.29,0.00,29.23,31.95,34.31,5.89,31.96,1016.62,2034.02,3351.99,3237.00,3519.06,349.52,316.86,19.37,0000 0000 0000 0000 000000
2013-07-29 02:27:44,0.01,0.29,0.00,29.25,31.96,34.31,5.91,31.88,1016.62,2034.02,3351.99,3237.01,3519.06,349.46,316.86,19.38,0000 0000 0000 0000 000000
2013-07-29 02:28:44,-0.01,0.29,0.00,29.23,31.97,34.30,5.86,31.71,1016.62,2034.00,3351.99,3237.00,3519.03,350.22,317.21,19.39,0000 0000 0000 0000 000000
2013-07-29 02:29:44,-0.00,0.29,0.00,29.28,31.97,34.31,5.98,31.96,1016.62,2034.00,3351.95,3237.00,3519.02,350.95,317.64,19.39,0000 0000 0000 0000 000000
2013-07-29 02:30:44,0.00,0.29,0.00,29.30,31.97,34.33,5.84,31.71,1016.62,2034.02,3351.94,3237.00,3519.02,350.12,317.38,19.40,0000 0000 0000 0000 000000
2013-07-29 02:31:45,0.01,0.29,0.00,29.28,31.97,34.33,5.84,32.08,1016.62,2034.02,3351.93,3237.00,3519.01,349.29,316.21,19.40,0000 0000 0000 0000 000000
2013-07-29 02:32:45,0.00,0.29,0.00,29.29,31.97,34.34,5.73,31.88,1016.62,2034.02,3351.89,3237.00,3519.01,348.76,316.17,19.41,0000 0000 0000 0000 000000
2013-07-29 02:33:45,0.00,0.29,0.00,29.28,31.97,34.38,5.93,31.75,1016.62,2034.02,3351.77,3237.00,3519.00,350.26,317.47,19.42,0000 0000 0000 0000 000000
2013-07-29 02:34:45,0.00,0.29,0.00,29.25,31.97,34.38,5.90,31.67,1016.62,2034.00,3351.61,3237.00,3519.00,350.60,317.81,19.42,0000 0000 0000 0000 000000
2013-07-29 02:35:46,0.01,0.29,0.00,29.25,31.98,34.36,5.73,31.88,1016.62,2034.00,3351.34,3236.98,3519.00,349.41,316.74,19.43,0000 0000 0000 0000 000000